Вернуться в каталог

H-2A R/B

АктивенGTO
NORAD 27369·ROCKET BODY·🇯🇵 Japan

Запущен Feb 4, 2002 с Tanegashima Space Center

Loading…

TLE

УстаревшееSource: Space-Track

Эпоха: Sep 9, 2026, 06:59 UTC

1 27369U 02003C   26252.29112086 -.00000032  00000-0  00000-0 0  9994
2 27369  23.7516 114.8487 6892469 293.5051  10.8010  2.37189874212504

Отслеживайте H-2A R/B в реальном времени с AllMySat

Download on the App Store